Year,Month,Day,Hour,Minute,Value (Times are PST for temperature in C)
2015,02,23,07,52,4.40
2015,02,23,07,53,4.50
2015,02,23,07,54,4.60
2015,02,23,07,55,4.60
2015,02,23,07,56,4.70
2015,02,23,07,57,4.70
2015,02,23,07,58,4.70
2015,02,23,07,59,4.80
2015,02,23,08,00,4.80
2015,02,23,08,01,4.80
2015,02,23,08,02,4.80
2015,02,23,08,03,4.80
2015,02,23,08,04,4.80
2015,02,23,08,05,4.90
2015,02,23,08,06,4.90
2015,02,23,08,07,4.90
2015,02,23,08,08,5.00
2015,02,23,08,09,5.00
2015,02,23,08,10,5.00
2015,02,23,08,11,5.10
2015,02,23,08,12,5.10
2015,02,23,08,13,5.20
2015,02,23,08,14,5.20
2015,02,23,08,15,5.20
2015,02,23,08,16,5.20
2015,02,23,08,17,5.30
2015,02,23,08,18,5.30
2015,02,23,08,19,5.30
2015,02,23,08,20,5.30
2015,02,23,08,21,5.40
2015,02,23,08,22,5.40
2015,02,23,08,23,5.40
2015,02,23,08,24,5.50
2015,02,23,08,25,5.50
2015,02,23,08,26,5.60
2015,02,23,08,27,5.70
2015,02,23,08,28,5.70
2015,02,23,08,29,5.80
2015,02,23,08,30,5.90
2015,02,23,08,31,6.00
2015,02,23,08,32,6.10
2015,02,23,08,33,6.20
2015,02,23,08,34,6.20
2015,02,23,08,35,6.30
2015,02,23,08,36,6.40
2015,02,23,08,37,6.50
2015,02,23,08,38,6.60
2015,02,23,08,39,6.60
2015,02,23,08,40,6.60
2015,02,23,08,41,6.70
2015,02,23,08,42,6.70
2015,02,23,08,43,6.70
2015,02,23,08,44,6.70
2015,02,23,08,45,6.70
2015,02,23,08,46,6.70
2015,02,23,08,47,6.70
2015,02,23,08,48,6.70
2015,02,23,08,49,6.70
2015,02,23,08,50,6.70
2015,02,23,08,51,6.70
2015,02,23,08,52,6.70
2015,02,23,08,53,6.70
2015,02,23,08,54,6.70
2015,02,23,08,55,6.70
2015,02,23,08,56,6.70
2015,02,23,08,57,6.70
2015,02,23,08,58,6.70
2015,02,23,08,59,6.80
2015,02,23,09,00,6.80
2015,02,23,09,01,6.80
2015,02,23,09,02,6.90
2015,02,23,09,03,6.90
2015,02,23,09,04,6.90
2015,02,23,09,05,6.90
2015,02,23,09,06,7.00
2015,02,23,09,07,7.00
2015,02,23,09,08,7.10
2015,02,23,09,09,7.10
2015,02,23,09,10,7.10
2015,02,23,09,11,7.10
2015,02,23,09,12,7.20
2015,02,23,09,13,7.20
2015,02,23,09,14,7.20
2015,02,23,09,15,7.10
2015,02,23,09,16,7.10
2015,02,23,09,17,7.10
2015,02,23,09,18,7.10
2015,02,23,09,19,7.10
2015,02,23,09,20,7.10
2015,02,23,09,21,7.10
2015,02,23,09,22,7.20
2015,02,23,09,23,7.20
2015,02,23,09,24,7.30
2015,02,23,09,25,7.30
2015,02,23,09,26,7.30
2015,02,23,09,27,7.40
2015,02,23,09,28,7.40
2015,02,23,09,29,7.40
2015,02,23,09,30,7.40
2015,02,23,09,31,7.40
2015,02,23,09,32,7.40
2015,02,23,09,33,7.40
2015,02,23,09,34,7.50
2015,02,23,09,35,7.50
2015,02,23,09,36,7.60
2015,02,23,09,37,7.60
2015,02,23,09,38,7.70
2015,02,23,09,39,7.70
2015,02,23,09,40,7.80
2015,02,23,09,41,7.80
2015,02,23,09,42,7.90
2015,02,23,09,43,7.90
2015,02,23,09,44,8.00
2015,02,23,09,45,8.00
2015,02,23,09,46,8.10
2015,02,23,09,47,8.10
2015,02,23,09,48,8.10
2015,02,23,09,49,8.10
2015,02,23,09,50,8.20
2015,02,23,09,51,8.20
2015,02,23,09,52,8.20
2015,02,23,09,53,8.20
2015,02,23,09,54,8.20
2015,02,23,09,55,8.20
2015,02,23,09,56,8.20
2015,02,23,09,57,8.30
2015,02,23,09,58,8.30
2015,02,23,09,59,8.30
2015,02,23,10,00,8.30
2015,02,23,10,01,8.40
2015,02,23,10,02,8.40
2015,02,23,10,03,8.50
2015,02,23,10,04,8.50
2015,02,23,10,05,8.60
2015,02,23,10,06,8.60
2015,02,23,10,07,8.60
2015,02,23,10,08,8.70
2015,02,23,10,09,8.80
2015,02,23,10,10,8.80
2015,02,23,10,11,8.80
2015,02,23,10,12,8.80
2015,02,23,10,13,8.90
2015,02,23,10,14,8.90
2015,02,23,10,15,8.90
2015,02,23,10,16,9.00
2015,02,23,10,17,9.00
2015,02,23,10,18,9.00
2015,02,23,10,19,9.10
2015,02,23,10,20,9.10
2015,02,23,10,21,9.10
2015,02,23,10,22,9.20
2015,02,23,10,23,9.20
2015,02,23,10,24,9.20
2015,02,23,10,25,9.20
2015,02,23,10,26,9.20
2015,02,23,10,27,9.20
2015,02,23,10,28,9.30
2015,02,23,10,29,9.30
2015,02,23,10,30,9.30
2015,02,23,10,31,9.30
2015,02,23,10,32,9.40
2015,02,23,10,33,9.50
2015,02,23,10,34,9.50
2015,02,23,10,35,9.60
2015,02,23,10,36,9.60
2015,02,23,10,37,9.60
2015,02,23,10,38,9.60
2015,02,23,10,39,9.60
2015,02,23,10,40,9.60
2015,02,23,10,41,9.70
2015,02,23,10,42,9.70
2015,02,23,10,43,9.70
2015,02,23,10,44,9.70
2015,02,23,10,45,9.60
2015,02,23,10,46,9.50
2015,02,23,10,47,9.40
2015,02,23,10,48,9.30
2015,02,23,10,49,9.20
2015,02,23,10,50,9.10
2015,02,23,10,51,9.10
2015,02,23,10,52,9.00
2015,02,23,10,53,8.80
2015,02,23,10,54,8.70
2015,02,23,10,55,8.60
2015,02,23,10,56,8.50
2015,02,23,10,57,8.40
2015,02,23,10,58,8.40
2015,02,23,10,59,8.40
2015,02,23,11,00,8.50
2015,02,23,11,01,8.50
2015,02,23,11,02,8.50
2015,02,23,11,03,8.60
2015,02,23,11,04,8.60
2015,02,23,11,05,8.60
2015,02,23,11,06,8.70
2015,02,23,11,07,8.70
2015,02,23,11,08,8.70
2015,02,23,11,09,8.80
2015,02,23,11,10,8.80
2015,02,23,11,11,8.70
2015,02,23,11,12,8.70
2015,02,23,11,13,8.70
2015,02,23,11,14,8.60
2015,02,23,11,15,8.50
2015,02,23,11,16,8.40
2015,02,23,11,17,8.50
2015,02,23,11,18,8.50
2015,02,23,11,19,8.50
2015,02,23,11,20,8.60
2015,02,23,11,21,8.60
2015,02,23,11,22,8.60
2015,02,23,11,23,8.60
2015,02,23,11,24,8.60
2015,02,23,11,25,8.60
2015,02,23,11,26,8.70
2015,02,23,11,27,8.70
2015,02,23,11,28,8.70
2015,02,23,11,29,8.60
2015,02,23,11,30,8.60
2015,02,23,11,31,8.50
2015,02,23,11,32,8.40
2015,02,23,11,33,8.30
2015,02,23,11,34,8.30
2015,02,23,11,35,8.20
2015,02,23,11,36,8.20
2015,02,23,11,37,8.20
2015,02,23,11,38,8.20
2015,02,23,11,39,8.20
2015,02,23,11,40,8.20
2015,02,23,11,41,8.20
2015,02,23,11,42,8.20
2015,02,23,11,43,8.20
2015,02,23,11,44,8.20
2015,02,23,11,45,8.20
2015,02,23,11,46,8.20
2015,02,23,11,47,8.20
2015,02,23,11,48,8.20
2015,02,23,11,49,8.20
2015,02,23,11,50,8.20
2015,02,23,11,51,8.20
2015,02,23,11,52,8.20
2015,02,23,11,53,8.20
2015,02,23,11,54,8.20
2015,02,23,11,55,8.20
2015,02,23,11,56,8.20
2015,02,23,11,57,8.20
2015,02,23,11,58,8.20
2015,02,23,11,59,8.20
2015,02,23,12,00,8.20
2015,02,23,12,01,8.30
2015,02,23,12,02,8.30
2015,02,23,12,03,8.40
2015,02,23,12,04,8.40
2015,02,23,12,05,8.50
2015,02,23,12,06,8.50
2015,02,23,12,07,8.50
2015,02,23,12,08,8.60
2015,02,23,12,09,8.70
2015,02,23,12,10,8.80
2015,02,23,12,11,8.80
2015,02,23,12,12,8.70
2015,02,23,12,13,8.60
2015,02,23,12,14,8.60
2015,02,23,12,15,8.50
2015,02,23,12,16,8.50
2015,02,23,12,17,8.40
2015,02,23,12,18,8.40
2015,02,23,12,19,8.40
2015,02,23,12,20,8.30
2015,02,23,12,21,8.30
2015,02,23,12,22,8.30
2015,02,23,12,23,8.30
2015,02,23,12,24,8.30
2015,02,23,12,25,8.30
2015,02,23,12,26,8.40
2015,02,23,12,27,8.40
2015,02,23,12,28,8.40
2015,02,23,12,29,8.40
2015,02,23,12,30,8.40
2015,02,23,12,31,8.40
2015,02,23,12,32,8.40
2015,02,23,12,33,8.40
2015,02,23,12,34,8.50
2015,02,23,12,35,8.50
2015,02,23,12,36,8.60
2015,02,23,12,37,8.70
2015,02,23,12,38,8.80
2015,02,23,12,39,8.80
2015,02,23,12,40,8.80
2015,02,23,12,41,8.80
2015,02,23,12,42,8.80
2015,02,23,12,43,8.90
2015,02,23,12,44,8.90
2015,02,23,12,45,8.80
2015,02,23,12,46,8.80
2015,02,23,12,47,8.70
2015,02,23,12,48,8.60
2015,02,23,12,49,8.60
2015,02,23,12,50,8.50
2015,02,23,12,51,8.50
2015,02,23,12,52,8.50
2015,02,23,12,53,8.60
2015,02,23,12,54,8.60
2015,02,23,12,55,8.50
2015,02,23,12,56,8.50
2015,02,23,12,57,8.40
2015,02,23,12,58,8.40
2015,02,23,12,59,8.40
2015,02,23,13,00,8.40
2015,02,23,13,01,8.50
2015,02,23,13,02,8.50
2015,02,23,13,03,8.60
2015,02,23,13,04,8.60
2015,02,23,13,05,8.60
2015,02,23,13,06,8.60
2015,02,23,13,07,8.60
2015,02,23,13,08,8.60
2015,02,23,13,09,8.60
2015,02,23,13,10,8.60
2015,02,23,13,11,8.60
2015,02,23,13,12,8.60
2015,02,23,13,13,8.60
2015,02,23,13,14,8.60
2015,02,23,13,15,8.50
2015,02,23,13,16,8.60
2015,02,23,13,17,8.60
2015,02,23,13,18,8.60
2015,02,23,13,19,8.70
2015,02,23,13,20,8.80
2015,02,23,13,21,8.80
2015,02,23,13,22,8.80
2015,02,23,13,23,8.80
2015,02,23,13,24,8.90
2015,02,23,13,25,8.90
2015,02,23,13,26,9.00
2015,02,23,13,27,9.00
2015,02,23,13,28,9.00
2015,02,23,13,29,8.90
2015,02,23,13,30,8.90
2015,02,23,13,31,8.90
2015,02,23,13,32,8.90
2015,02,23,13,33,8.90
2015,02,23,13,34,8.90
2015,02,23,13,35,8.90
2015,02,23,13,36,8.90
2015,02,23,13,37,8.90
2015,02,23,13,38,8.90
2015,02,23,13,39,9.00
2015,02,23,13,40,9.10
2015,02,23,13,41,9.10
2015,02,23,13,42,9.10
2015,02,23,13,43,9.10
2015,02,23,13,44,9.10
2015,02,23,13,45,9.10
2015,02,23,13,46,9.10
2015,02,23,13,47,9.10
2015,02,23,13,48,9.10
2015,02,23,13,49,9.10
2015,02,23,13,50,9.10
2015,02,23,13,51,9.10
2015,02,23,13,52,9.20
2015,02,23,13,53,9.20
2015,02,23,13,54,9.20
2015,02,23,13,55,9.30
2015,02,23,13,56,9.30
2015,02,23,13,57,9.30
2015,02,23,13,58,9.30
2015,02,23,13,59,9.30
2015,02,23,14,00,9.30
2015,02,23,14,01,9.30
2015,02,23,14,02,9.30
2015,02,23,14,03,9.20
2015,02,23,14,04,9.10
2015,02,23,14,05,9.10
2015,02,23,14,06,9.00
2015,02,23,14,07,9.00
2015,02,23,14,08,9.10
2015,02,23,14,09,9.10
2015,02,23,14,10,9.10
2015,02,23,14,11,9.20
2015,02,23,14,12,9.20
2015,02,23,14,13,9.20
2015,02,23,14,14,9.20
2015,02,23,14,15,9.20
2015,02,23,14,16,9.20
2015,02,23,14,17,9.10
2015,02,23,14,18,9.10
2015,02,23,14,19,9.10
2015,02,23,14,20,9.10
2015,02,23,14,21,9.00
2015,02,23,14,22,9.00
2015,02,23,14,23,9.00
2015,02,23,14,24,9.00
2015,02,23,14,25,9.00
2015,02,23,14,26,9.00
2015,02,23,14,27,8.90
2015,02,23,14,28,8.90
2015,02,23,14,29,8.90
2015,02,23,14,30,9.00
2015,02,23,14,31,9.00
2015,02,23,14,32,9.00
2015,02,23,14,33,9.00
2015,02,23,14,34,9.00
2015,02,23,14,35,9.00
2015,02,23,14,36,9.10
2015,02,23,14,37,9.10
2015,02,23,14,38,9.10
2015,02,23,14,39,9.10
2015,02,23,14,40,9.10
2015,02,23,14,41,9.10
2015,02,23,14,42,9.20
2015,02,23,14,43,9.20
2015,02,23,14,44,9.20
2015,02,23,14,45,9.20
2015,02,23,14,46,9.20
2015,02,23,14,47,9.20
2015,02,23,14,48,9.20
2015,02,23,14,49,9.20
2015,02,23,14,50,9.30
2015,02,23,14,51,9.30
2015,02,23,14,52,9.40
2015,02,23,14,53,9.50
2015,02,23,14,54,9.60
2015,02,23,14,55,9.70
2015,02,23,14,56,9.70
2015,02,23,14,57,9.80
2015,02,23,14,58,9.80
2015,02,23,14,59,9.70
2015,02,23,15,00,9.70
2015,02,23,15,01,9.70
2015,02,23,15,02,9.70
2015,02,23,15,03,9.50
2015,02,23,15,04,9.40
2015,02,23,15,05,9.30
2015,02,23,15,06,9.30
2015,02,23,15,07,9.30
2015,02,23,15,08,9.30
2015,02,23,15,09,9.40
2015,02,23,15,10,9.30
2015,02,23,15,11,9.30
2015,02,23,15,12,9.40
2015,02,23,15,13,9.40
2015,02,23,15,14,9.50
2015,02,23,15,15,9.50
2015,02,23,15,16,9.40
2015,02,23,15,17,9.40
2015,02,23,15,18,9.30
2015,02,23,15,19,9.30
2015,02,23,15,20,9.20
2015,02,23,15,21,9.20
2015,02,23,15,22,9.20
2015,02,23,15,23,9.20
2015,02,23,15,24,9.20
2015,02,23,15,25,9.20
2015,02,23,15,26,9.20
2015,02,23,15,27,9.20
2015,02,23,15,28,9.30
2015,02,23,15,29,9.30
2015,02,23,15,30,9.30
2015,02,23,15,31,9.40
2015,02,23,15,32,9.40
2015,02,23,15,33,9.50
2015,02,23,15,34,9.50
2015,02,23,15,35,9.50
2015,02,23,15,36,9.60
2015,02,23,15,37,9.60
2015,02,23,15,38,9.60
2015,02,23,15,39,9.70
2015,02,23,15,40,9.70
2015,02,23,15,41,9.80
2015,02,23,15,42,9.80
2015,02,23,15,43,9.90
2015,02,23,15,44,9.90
2015,02,23,15,45,10.00
2015,02,23,15,46,10.00
2015,02,23,15,47,10.00
2015,02,23,15,48,10.00
2015,02,23,15,49,9.90
2015,02,23,15,50,10.00
2015,02,23,15,51,9.90
2015,02,23,15,52,9.90
2015,02,23,15,53,9.90
2015,02,23,15,54,9.90
2015,02,23,15,55,9.90
2015,02,23,15,56,10.00
2015,02,23,15,57,10.00
2015,02,23,15,58,10.00
2015,02,23,15,59,10.00
2015,02,23,16,00,10.00
2015,02,23,16,01,9.90
2015,02,23,16,02,9.90
2015,02,23,16,03,9.90
2015,02,23,16,04,9.90
2015,02,23,16,05,9.90
2015,02,23,16,06,9.90
2015,02,23,16,07,9.90
2015,02,23,16,08,10.00
2015,02,23,16,09,10.00
2015,02,23,16,10,10.00
2015,02,23,16,11,10.00
2015,02,23,16,12,10.10
2015,02,23,16,13,10.10
2015,02,23,16,14,10.10
2015,02,23,16,15,10.10
2015,02,23,16,16,10.10
2015,02,23,16,17,10.10
2015,02,23,16,18,10.20
2015,02,23,16,19,10.20
2015,02,23,16,20,10.20
2015,02,23,16,21,10.30
2015,02,23,16,22,10.30
2015,02,23,16,23,10.30
2015,02,23,16,24,10.30
2015,02,23,16,25,10.30
2015,02,23,16,26,10.30
2015,02,23,16,27,10.20
2015,02,23,16,28,10.20
2015,02,23,16,29,10.20
2015,02,23,16,30,10.20
2015,02,23,16,31,10.20
2015,02,23,16,32,10.20
2015,02,23,16,33,10.10
2015,02,23,16,34,10.10
2015,02,23,16,35,10.10
2015,02,23,16,36,10.10
2015,02,23,16,37,10.00
2015,02,23,16,38,10.00
2015,02,23,16,39,10.10
2015,02,23,16,40,10.10
2015,02,23,16,41,10.10
2015,02,23,16,42,10.10
2015,02,23,16,43,10.10
2015,02,23,16,44,10.10
2015,02,23,16,45,10.10
2015,02,23,16,46,10.00
2015,02,23,16,47,9.90
2015,02,23,16,48,9.90
2015,02,23,16,49,9.80
2015,02,23,16,50,9.80
2015,02,23,16,51,9.80
2015,02,23,16,52,9.70
2015,02,23,16,53,9.70
2015,02,23,16,54,9.70
2015,02,23,16,55,9.70
2015,02,23,16,56,9.60
2015,02,23,16,57,9.60
2015,02,23,16,58,9.60
2015,02,23,16,59,9.60
2015,02,23,17,00,9.60
2015,02,23,17,01,9.60
2015,02,23,17,02,9.60
2015,02,23,17,03,9.50
2015,02,23,17,04,9.50
2015,02,23,17,05,9.50
2015,02,23,17,06,9.50
2015,02,23,17,07,9.40
2015,02,23,17,08,9.40
2015,02,23,17,09,9.40
2015,02,23,17,10,9.40
2015,02,23,17,11,9.30
2015,02,23,17,12,9.30
2015,02,23,17,13,9.30
2015,02,23,17,14,9.20
2015,02,23,17,15,9.20
2015,02,23,17,16,9.20
2015,02,23,17,17,9.10
2015,02,23,17,18,9.10
2015,02,23,17,19,9.10
2015,02,23,17,20,9.10
2015,02,23,17,21,9.00
2015,02,23,17,22,9.00
2015,02,23,17,23,9.00
2015,02,23,17,24,8.90
2015,02,23,17,25,8.90
2015,02,23,17,26,8.90
2015,02,23,17,27,8.90
2015,02,23,17,28,8.90
2015,02,23,17,29,8.90
2015,02,23,17,30,8.90
2015,02,23,17,31,8.90
2015,02,23,17,32,8.90
2015,02,23,17,33,8.80
2015,02,23,17,34,8.80
2015,02,23,17,35,8.80
2015,02,23,17,36,8.80
2015,02,23,17,37,8.80
2015,02,23,17,38,8.80
2015,02,23,17,39,8.80
2015,02,23,17,40,8.80
2015,02,23,17,41,8.80
2015,02,23,17,42,8.80
2015,02,23,17,43,8.80
